Location: RapidEye Observatory
(35.3653°N, 79.2300°W)
Time: 01:39:12
(UTC-04:00)

OTV 5 (USA 277) - Visible Passes

Search period start: 26 April 2018 00:00
Search period end: 06 May 2018 00:00
Orbit: 308 x 325 km, 54.5° (Epoch: 25 April)

Date Brightness Start Highest point End Pass type
(mag) Time Alt. Az. Time Alt. Az. Time Alt. Az.
02 May ? 22:04:00 10° N 22:04:37 13° N 22:04:37 13° N visible
03 May ? 22:17:35 10° NNW 22:18:25 17° NNW 22:18:25 17° NNW visible
04 May ? 22:31:47 10° NW 22:32:15 14° NW 22:32:15 14° NW visible
05 May ? 21:12:09 10° NNW 21:14:23 22° NE 21:15:14 19° ENE visible
